Погода в Турунтаеве

Россия / Республика Бурятия     52°12′08″N   107°38′19″E
темп.,
°C
ветер,
м/с
пор.,
м/с
влажн.,
%
обл.,
%
осадки,
мм/ч
давл.,
гПа
погр.,
м
2 декабря, чт
чт223:00−4сз61368100 0.2 10191394
02:00−7сз51268100 0.3 1021869
05:00−7зсз41073100 0.0 1023771
08:00−10сз368885 0.1 1025243
11:00−8зсз3879100 0.0 1024623
14:00−6з3772100 0.0 1022714
17:00−10зюз139584 0.0 102477
20:00−7зюз279699 0.2 1023336
3 декабря, пт
пт323:00−7з269462 0.1 1022265
02:00−8з139873 0.2 1023138
05:00−11зюз1110080 0.1 102411
08:00−12ююз1110087 0.1 102516
11:00−6юз148957 0.0 1024216
14:00−1юз247936 0.1 1022472
17:00−8ю119316 0.0 102411
20:00−12ююв119331 0.0 102510
4 декабря, сб
сб423:00−14ююз119338 0.0 102512
02:00−15ююз119554 0.0 102514
05:00−16ю119555 0.0 102417
08:00−16ююз119553 0.0 102222
11:00−9юз1377100 0.0 1019114
14:00−6юз2371100 0.0 1017215
17:00−10юз1193100 0.0 102110
20:00−9ю1188100 0.0 102230
5 декабря, вс
вс523:00−13ююв119744 0.0 102411
02:00−14ююв119989 0.0 102610
05:00−12ююв119992 0.0 102625
08:00−11ююз119872 0.3 102814
11:00−6зсз397612 0.0 1029758
14:00−5зсз4146385 0.0 10291528
17:00−10з368233 0.0 1032173
20:00−14зюз139636 0.0 103554
6 декабря, пн
пн623:00−16ююз119956 0.0 103611
02:00−16ююв119855 0.0 103411
05:00−13ююз119688 0.0 103132
08:00−16ююз119975 0.0 103014
11:00−10юз228641 0.0 1028136
14:00−6юз23745 0.0 1025240
17:00−13ююз11955 0.0 102713
20:00−16ююз119741 0.0 102810